Temp
55 46 44 45 49 51 51 49 48 54 60 59 59 60 64 68 66 70 66 69 68 71 75 76 77 72 76 76 75 74 73 73 79 77 78 78 77 77 76 79 78 76 75 76
48 44 53 56 55 52 50 47 47 54 60 58 57 56 62 65 65 70 72 67 73 67 71 74 74 69 74 74 74 73 75 76 78 81 80 81 81 76 78 77 76 76 76 76
46 51 60 56 53 51 50 47 48 48 56 59 56 53 57 63 66 68 73 75 74 73 70 71 73 69 71 73 72 73 74 76 78 80 75 73 75 74 73 73 74 75 77 76
49 55 55 49 50 55 47 56 55 53 48 42 53 41 54 56 60 65 67 73 73 71 72 73 71 67 71 73 74 76 74 72 74 75 74 80 79 76 80 75 73 74 75 77
44 49 50 46 49 52 46 56 51 52 42 39 45 37 46 55 55 60 64 67 71 75 74 71 71 73 71 76 76 76 77 74 76 76 76 73 79 71 73 72 72 72 72 73
48 58 53 51 54 54 54 52 46 47 41 33 42 39 45 51 55 61 65 67 71 75 68 71 71 70 71 76 78 77 78 77 78 76 76 73 72 72 71 73 71 71 71 71
46 47 54 57 48 53 50 40 32 30 30 31 44 39 44 54 61 64 67 69 67 70 67 68 69 68 69 72 78 77 78 76 78 77 77 74 73 74 72 72 71 71 69 70
32 30 49 57 51 45 44 39 33 26 28 32 46 37 45 61 64 65 71 71 69 69 72 72 73 71 71 73 76 78 77 77 77 78 76 73 74 71 71 71 71 70 69 69
32 35 49 51 53 50 42 35 44 37 39 33 36 42 51 58 60 63 66 69 64 67 68 74 76 71 70 72 74 76 77 78 78 76 72 72 73 71 70 69 69 69 69 68
38 29 46 50 51 49 45 48 32 31 26 26 33 37 41 49 52 57 56 55 56 63 65 68 75 74 72 73 74 74 76 75 74 72 71 70 70 69 68 69 68 67 67 67
39 36 40 46 43 39 39 38 37 35 33 28 28 35 46 48 48 49 51 54 56 58 65 66 74 78 71 74 74 72 69 70 69 69 68 68 67 67 67 67 67 67 67 67
43 35 31 38 44 47 44 37 40 31 30 35 32 34 48 46 48 50 51 55 59 60 60 66 75 78 68 73 73 70 70 70 69 67 67 66 66 66 66 67 65 66 64 65
40 35 26 27 40 45 38 42 40 40 38 32 29 33 50 50 50 51 50 53 57 59 60 60 64 67 67 68 69 69 70 67 67 66 63 62 62 63 64 65 64 65 62 61
45 34 31 27 31 39 37 41 42 38 33 37 38 40 47 48 47 50 52 53 53 62 62 63 64 65 66 68 69 68 66 66 66 65 63 62 61 60 61 61 61 60 60 57
40 29 34 37 40 41 40 40 41 36 38 34 40 43 47 48 48 49 51 54 52 58 62 64 64 65 65 65 65 65 65 64 63 62 60 58 59 61 60 59 57 57 57 55
42 33 32 31 40 42 38 41 43 43 43 41 42 40 51 52 52 51 52 50 53 59 60 63 62 62 62 62 61 62 61 61 60 59 59 60 60 59 57 55 55 54 52 50
34 29 30 26 36 36 30 39 42 43 46 46 38 44 50 50 51 51 51 53 53 54 56 59 59 60 60 60 60 59 59 60 60 60 60 59 58 56 55 54 53 50 47 46
34 30 32 28 29 21 41 46 45 43 49 51 51 49 50 51 51 52 52 51 50 51 52 53 55 57 57 58 58 59 60 61 60 59 58 58 57 55 53 51 49 47 47 44
40 35 31 27 24 34 40 40 39 39 43 51 48 49 50 51 52 49 52 51 50 50 51 50 51 52 53 55 57 58 57 57 57 56 55 55 55 52 51 48 48 47 46 45
43 40 33 31 26 25 36 41 45 46 40 48 51 49 49 51 41 44 50 51 51 51 50 50 50 50 51 51 54 54 53 54 54 55 54 54 53 51 49 49 47 45 46 45
34 33 31 31 29 33 39 41 47 37 39 44 46 52 50 46 46 48 49 48 48 48 48 48 49 48 47 48 51 51 52 51 53 54 53 52 51 50 49 48 47 47 45 44
33 31 31 32 30 28 40 42 38 40 43 45 49 48 46 47 48 47 48 48 48 47 48 48 46 46 48 49 50 51 50 52 53 53 52 51 50 52 49 46 46 44 44 43
33 36 33 33 32 39 42 41 44 45 44 49 48 49 48 47 46 47 46 47 48 48 48 48 46 46 47 48 52 50 50 51 51 49 48 47 47 47 46 42 41 40 41 41
38 41 36 36 38 39 42 44 45 46 50 50 50 49 49 46 47 46 47 46 46 47 47 48 48 46 46 48 49 50 52 52 49 46 44 44 42 41 39 39 37 37 36 37
37 39 38 36 39 42 42 43 44 45 50 49 49 49 48 47 46 46 46 46 47 46 47 46 45 45 46 48 48 49 50 49 46 45 44 42 39 38 36 35 34 34 33 35
40 38 35 33 40 40 41 44 46 44 44 48 47 47 49 48 47 47 46 47 47 47 47 46 46 47 48 49 47 47 48 49 47 45 42 40 38 37 35 34 33 38 38 39
MSLP
1005.91 1006.29 1006.24 1007.08 1007.11 1006.97 1006.80 1006.10 1005.03 1004.07 1003.56 1003.30 1001.68 1000.02 1000.01 999.88 999.70 999.23 999.44 999.40 999.84 999.82 999.62 999.49 1000.15 1000.76 1001.44 1001.98 1002.87 1003.39 1003.86 1004.39 1004.90 1005.77 1005.77 1006.57 1007.48 1007.88 1007.98 1008.51 1008.98 1009.40 1010.00 1010.45
1006.20 1005.73 1006.12 1006.41 1006.39 1006.42 1006.23 1005.82 1004.70 1004.36 1003.96 1003.37 1001.95 1000.40 1000.10 999.74 999.28 998.61 998.56 998.81 998.64 999.40 999.58 999.67 999.71 1000.81 1001.22 1001.80 1002.50 1003.24 1003.57 1003.83 1004.24 1004.64 1005.32 1006.18 1006.52 1007.22 1007.26 1007.70 1008.57 1008.87 1009.48 1009.88
1005.66 1004.55 1004.99 1005.29 1005.43 1005.57 1005.34 1005.02 1004.35 1004.16 1003.82 1003.20 1002.25 1000.57 999.86 999.21 998.71 998.23 997.65 997.45 997.76 998.01 998.70 999.10 999.50 1000.12 1000.63 1001.29 1001.93 1002.48 1002.95 1003.37 1003.70 1004.37 1005.42 1006.38 1006.68 1007.05 1007.19 1007.49 1007.99 1008.72 1009.12 1009.57
1005.28 1004.67 1004.92 1005.12 1004.90 1004.86 1004.69 1004.44 1004.39 1004.16 1003.86 1003.42 1002.43 1000.74 999.44 998.99 998.35 997.89 997.40 996.98 996.90 997.01 997.31 997.84 998.48 999.56 999.90 1000.26 1001.00 1001.56 1002.01 1003.17 1003.71 1004.10 1004.93 1005.31 1005.26 1006.48 1006.89 1007.14 1007.50 1008.30 1008.94 1009.12
1005.64 1005.06 1004.83 1004.67 1004.16 1004.96 1004.76 1004.87 1004.96 1004.76 1004.66 1004.30 1003.00 1002.39 999.62 998.85 998.22 997.62 997.10 996.76 996.45 996.40 996.31 996.80 997.32 998.10 998.85 999.43 999.97 1000.93 1001.56 1002.46 1003.00 1003.50 1004.14 1004.88 1005.57 1006.00 1007.00 1007.00 1007.58 1008.27 1008.46 1008.90
1006.02 1005.10 1004.68 1004.25 1003.85 1004.02 1005.21 1005.09 1005.26 1005.38 1005.36 1004.54 1003.55 1002.93 999.50 998.94 998.04 997.17 996.48 996.24 995.89 995.65 996.28 996.14 996.54 997.17 997.96 998.32 999.08 999.94 1000.76 1001.51 1002.33 1002.44 1003.52 1004.61 1005.03 1006.00 1006.71 1007.25 1007.70 1008.00 1008.60 1009.12
1006.12 1005.61 1004.50 1003.80 1003.48 1003.13 1004.70 1005.62 1006.06 1005.95 1005.42 1004.38 1003.24 1002.57 1000.35 998.31 997.06 996.58 996.06 995.68 995.66 995.72 995.93 995.91 996.42 997.10 997.34 997.80 998.13 998.87 999.77 1000.83 1001.62 1001.89 1003.06 1003.64 1004.34 1005.54 1006.12 1006.57 1007.53 1008.01 1008.76 1008.80
1006.46 1005.89 1003.76 1002.40 1002.51 1002.68 1003.74 1004.86 1006.04 1005.91 1005.00 1004.20 1002.83 1001.60 999.54 996.79 996.64 996.12 995.56 995.32 995.10 995.16 995.40 995.26 995.77 996.29 996.46 997.10 997.52 998.27 999.00 1000.03 1001.03 1001.53 1002.60 1003.32 1004.01 1004.91 1005.45 1006.64 1007.20 1007.24 1008.46 1009.08
1007.14 1004.78 1003.24 1002.84 1002.64 1002.95 1003.68 1004.40 1004.65 1005.60 1005.72 1004.35 1002.66 1000.94 998.82 996.57 996.66 996.43 995.77 995.35 995.49 995.40 995.08 994.80 994.90 995.31 995.81 996.39 996.82 997.61 998.40 999.35 1000.50 1001.30 1002.54 1003.34 1003.57 1004.54 1005.57 1006.50 1007.41 1007.87 1008.68 1009.58
1007.59 1006.42 1003.97 1003.74 1003.08 1002.74 1002.82 1003.55 1004.84 1005.18 1005.26 1004.70 1002.62 1000.98 998.18 997.04 996.84 996.54 996.34 996.12 995.76 995.36 994.98 994.52 994.50 994.89 994.90 995.41 996.30 997.07 997.88 998.60 999.85 1001.01 1002.19 1002.89 1003.61 1004.67 1005.74 1006.70 1007.63 1008.30 1009.04 1009.62
1007.74 1007.19 1005.54 1004.72 1003.36 1002.96 1003.38 1003.90 1004.74 1004.78 1004.92 1004.30 1002.90 1000.11 998.39 997.80 997.99 997.86 997.40 996.81 995.95 995.04 994.36 993.98 993.36 993.57 994.16 994.74 995.99 996.98 998.35 999.14 1000.36 1001.18 1002.24 1003.28 1004.47 1005.26 1006.10 1006.79 1007.73 1008.56 1009.46 1010.04
1007.63 1007.22 1006.21 1004.82 1004.06 1003.58 1003.45 1004.50 1004.42 1004.46 1004.55 1003.68 1002.34 999.67 998.64 998.36 998.26 998.35 997.63 996.81 995.24 994.05 993.26 992.84 992.54 992.92 993.90 994.26 995.71 997.08 997.94 999.16 1000.25 1001.46 1002.75 1004.02 1004.96 1005.96 1006.62 1007.31 1008.39 1009.05 1009.96 1010.79
1007.92 1007.30 1006.92 1005.45 1004.97 1004.18 1004.10 1004.14 1004.30 1004.72 1004.15 1002.91 1002.16 999.62 998.44 998.14 997.89 997.72 997.28 996.65 995.79 994.10 992.86 992.29 992.04 992.71 993.69 994.58 995.93 997.42 998.32 999.73 1000.83 1002.00 1003.45 1005.00 1005.73 1006.56 1007.45 1008.14 1009.11 1009.73 1010.62 1011.62
1007.92 1007.58 1007.21 1006.51 1005.28 1004.81 1004.18 1003.80 1003.80 1004.39 1003.35 1001.85 1000.74 999.80 999.03 998.41 998.48 997.78 996.95 996.04 996.68 994.60 992.98 992.80 993.07 993.54 994.19 995.11 996.46 998.08 999.31 999.97 1001.41 1002.71 1004.02 1005.38 1006.62 1007.60 1008.34 1009.08 1010.04 1010.56 1011.63 1012.47
1007.98 1007.58 1006.92 1006.15 1005.29 1004.56 1003.83 1003.22 1003.05 1003.29 1002.40 1001.70 1000.16 999.47 998.51 998.32 998.23 997.44 997.21 995.50 997.07 996.33 994.42 993.43 993.56 994.21 995.39 996.36 997.79 999.23 999.84 1000.78 1001.89 1003.38 1005.05 1006.26 1007.23 1008.22 1009.07 1010.21 1010.80 1011.69 1012.24 1013.10
1008.08 1007.64 1007.30 1005.91 1004.43 1003.79 1003.16 1002.30 1001.96 1001.51 1000.62 1000.21 999.83 998.95 997.94 998.09 997.64 997.35 997.20 996.86 997.03 995.15 994.69 994.99 995.40 995.62 996.53 997.55 999.14 1000.01 1000.90 1002.38 1002.66 1004.51 1005.88 1007.12 1008.16 1008.94 1010.33 1011.05 1011.84 1012.55 1013.51 1014.41
1008.82 1008.20 1007.59 1006.01 1004.43 1003.46 1002.22 1001.35 1000.26 999.49 998.61 998.24 998.73 997.72 997.51 997.99 997.22 997.79 997.52 996.94 996.72 997.24 996.64 997.13 997.25 997.85 999.00 999.56 1000.00 1000.47 1001.68 1003.08 1004.25 1005.09 1006.91 1007.79 1008.85 1009.91 1011.33 1011.95 1012.74 1013.71 1014.70 1015.60
1008.29 1008.16 1007.68 1006.26 1004.90 1003.34 1001.82 1001.17 1000.04 998.54 997.23 997.77 998.05 997.96 998.15 998.40 998.52 998.40 998.40 998.09 997.92 998.66 998.73 999.34 999.67 1000.30 1000.76 1001.11 1001.21 1001.87 1002.54 1003.78 1005.12 1006.54 1007.68 1008.72 1009.38 1010.88 1011.92 1012.75 1013.77 1014.81 1015.62 1016.05
1007.40 1007.98 1007.48 1006.59 1005.42 1003.31 1002.00 1001.91 1001.56 1000.66 998.88 997.80 997.89 998.36 998.73 999.11 999.26 1000.13 1000.20 1000.04 999.97 1000.25 1001.04 1001.54 1002.07 1002.78 1003.27 1002.71 1003.02 1002.77 1003.89 1005.08 1006.33 1007.78 1008.82 1009.59 1010.50 1011.56 1012.76 1013.82 1014.84 1015.53 1015.96 1016.70
1005.80 1006.81 1007.16 1006.55 1006.00 1004.43 1003.17 1002.34 1001.63 1000.81 999.76 999.08 998.96 999.02 999.38 999.62 1000.88 1001.90 1001.71 1001.51 1001.83 1002.18 1002.25 1003.31 1003.73 1004.23 1004.85 1004.42 1004.90 1004.26 1005.46 1006.58 1008.05 1008.91 1009.79 1010.68 1011.34 1012.44 1013.48 1014.34 1015.17 1015.78 1016.24 1016.83
1006.37 1006.59 1006.58 1006.47 1006.15 1004.90 1004.44 1003.28 1001.66 1001.69 1001.89 1000.43 1000.30 999.92 1000.13 1000.61 1001.85 1002.92 1002.83 1003.07 1003.37 1003.88 1004.70 1005.21 1005.62 1006.30 1005.74 1006.54 1006.57 1006.06 1006.84 1008.20 1009.22 1009.90 1010.57 1011.44 1012.44 1013.27 1013.99 1014.65 1015.40 1016.02 1016.60 1017.21
1006.94 1006.65 1006.57 1006.47 1006.29 1005.93 1005.46 1003.56 1003.22 1003.70 1001.77 1001.44 1000.80 1001.01 1001.82 1002.59 1003.55 1003.75 1004.19 1004.54 1005.05 1005.58 1006.22 1006.42 1006.84 1007.57 1008.05 1007.36 1008.39 1007.44 1008.57 1009.66 1010.11 1010.85 1011.69 1012.58 1013.22 1013.92 1014.63 1015.36 1016.07 1016.66 1017.13 1017.46
1007.53 1007.55 1007.47 1007.54 1007.62 1007.06 1006.13 1005.44 1004.25 1003.24 1001.50 1001.62 1001.50 1002.54 1002.89 1003.70 1004.63 1005.07 1005.62 1006.23 1006.63 1007.12 1007.60 1008.32 1008.51 1009.27 1009.54 1009.42 1009.14 1009.44 1010.46 1010.51 1011.26 1012.01 1012.88 1013.76 1014.43 1015.22 1015.90 1016.53 1016.98 1017.20 1017.52 1018.10
1008.38 1008.01 1007.72 1007.75 1007.71 1007.10 1006.32 1005.48 1004.53 1002.98 1001.83 1002.28 1002.49 1003.28 1003.86 1004.56 1005.58 1006.29 1006.87 1007.51 1008.06 1008.77 1009.52 1010.13 1010.26 1010.18 1010.41 1010.26 1010.22 1010.54 1011.10 1011.47 1012.30 1013.35 1014.34 1015.07 1015.46 1016.18 1017.10 1017.48 1017.91 1018.02 1018.38 1019.00
1009.73 1008.85 1008.33 1008.28 1007.91 1007.54 1007.01 1006.33 1005.45 1004.03 1003.07 1003.40 1003.90 1004.24 1004.98 1005.47 1006.77 1007.26 1008.13 1008.78 1009.40 1009.96 1010.51 1010.68 1010.98 1011.16 1011.42 1011.48 1011.44 1011.75 1012.19 1012.61 1013.46 1014.46 1015.32 1015.98 1016.58 1016.86 1018.02 1018.62 1018.98 1018.99 1019.38 1019.49
1010.26 1009.75 1009.32 1009.18 1008.86 1008.29 1008.00 1007.38 1006.48 1005.31 1005.05 1004.97 1005.15 1005.85 1006.46 1006.63 1007.75 1008.31 1009.25 1009.90 1010.38 1010.94 1011.40 1011.66 1011.95 1012.18 1012.31 1012.60 1013.01 1013.19 1013.31 1013.74 1014.60 1015.38 1015.99 1016.47 1017.26 1018.00 1018.32 1018.99 1019.72 1019.89 1019.94 1019.91
Wind_Speed
4 6 14 7 10 11 12 14 14 11 8 11 20 25 18 11 8 14 10 11 10 11 10 8 8 11 16 18 18 18 17 14 13 9 10 9 10 8 8 8 11 10 9 9
3 12 9 11 12 12 16 20 23 19 16 15 20 22 13 8 9 15 16 11 15 8 9 8 8 10 18 20 19 17 18 16 11 10 9 8 11 5 8 8 8 10 11 10
13 14 8 14 18 17 18 18 18 19 17 18 18 20 14 8 6 8 17 17 18 17 14 11 10 10 14 19 19 19 17 16 13 10 5 3 4 3 2 3 5 6 10 11
13 4 9 4 12 15 16 17 17 14 9 12 5 17 17 6 9 9 10 18 17 16 12 12 11 9 16 19 19 21 20 13 10 10 9 14 11 9 7 4 4 5 8 9
16 18 14 9 10 4 13 13 5 9 1 2 8 3 6 6 7 9 10 10 15 19 18 13 10 12 13 18 21 21 21 16 15 15 13 10 12 5 3 3 6 5 5 5
18 11 7 9 9 10 19 12 6 6 1 6 11 6 13 10 8 8 9 8 13 20 10 11 11 10 13 17 20 21 23 21 20 18 14 15 10 8 4 5 6 6 5 5
10 16 18 12 10 13 8 5 2 5 7 5 9 5 13 8 13 14 18 14 10 11 9 9 10 10 12 19 21 22 24 22 21 20 18 15 14 12 10 9 8 9 3 3
7 5 10 2 14 9 8 11 5 4 4 6 6 6 14 18 13 8 19 16 9 11 11 13 13 12 13 17 19 21 24 22 20 21 18 13 15 7 8 9 7 6 4 5
5 5 6 13 9 7 4 6 12 10 9 1 4 7 11 17 14 14 14 14 9 9 11 16 16 12 12 15 18 20 22 22 21 20 13 12 11 12 9 8 7 7 9 8
4 6 3 13 6 6 7 4 3 3 6 5 6 7 11 7 4 6 5 9 8 9 9 10 14 12 14 17 17 17 19 21 17 14 11 10 12 13 12 11 11 12 10 11
7 4 3 7 4 2 3 2 4 4 4 5 3 9 1 6 4 7 8 11 15 11 13 10 14 17 16 17 17 16 11 15 15 15 14 15 12 13 12 13 12 12 10 10
5 3 4 6 5 3 3 3 1 3 5 5 4 10 1 1 2 4 9 12 20 13 9 13 17 20 14 18 16 15 17 17 16 17 16 15 15 13 13 14 12 11 12 11
6 1 3 7 3 3 4 1 2 6 4 9 6 8 1 4 6 7 8 11 13 5 5 3 8 13 13 14 16 18 18 18 18 19 18 15 14 14 15 15 13 14 14 12
5 3 5 5 6 7 10 10 7 5 5 7 14 9 12 8 7 10 16 9 15 1 10 12 13 16 18 19 21 19 17 20 20 20 19 18 15 15 15 14 13 14 12 13
1 4 3 5 12 16 17 17 15 10 12 8 6 13 8 3 5 4 12 13 17 18 10 17 18 18 18 19 18 16 18 20 20 21 19 18 16 16 16 14 13 13 13 13
4 3 3 7 13 9 10 14 17 16 17 14 12 17 6 5 3 4 6 12 24 11 9 13 16 19 20 20 19 19 20 18 21 21 20 18 16 17 14 13 12 14 13 12
4 2 3 7 9 14 5 0 13 11 15 19 10 10 4 4 3 2 8 7 19 17 11 14 17 17 13 17 19 22 21 21 20 22 18 17 17 16 12 11 12 12 12 11
6 1 1 7 7 3 6 13 14 15 9 10 5 5 9 8 10 12 10 16 18 19 18 17 16 15 13 16 20 21 22 21 19 19 17 16 16 15 12 11 11 10 10 11
17 5 4 3 2 9 5 10 11 10 6 9 9 12 14 15 17 13 13 16 19 21 18 17 17 18 12 15 15 21 21 20 19 17 16 15 14 14 11 11 11 9 10 8
13 12 3 1 3 4 5 22 21 13 0 15 8 13 13 11 10 3 9 15 18 20 20 17 18 17 15 16 10 21 20 19 17 15 15 13 13 12 12 11 10 5 9 8
2 2 4 3 4 6 12 26 16 1 5 18 10 6 9 10 10 9 14 18 18 18 18 17 16 14 18 16 9 20 19 17 15 15 15 15 13 12 11 10 8 7 7 8
4 4 2 2 2 4 18 14 5 6 15 10 2 17 19 18 15 16 16 18 18 19 19 19 17 14 13 18 8 18 18 13 15 15 15 13 11 9 8 8 5 6 6 8
3 5 3 3 2 9 10 9 12 12 15 3 17 16 19 19 17 17 17 17 16 17 16 15 14 15 11 11 12 15 12 14 15 14 13 12 11 10 9 8 6 5 5 5
7 7 3 2 5 10 13 12 13 14 10 14 17 17 17 19 17 17 16 15 15 16 14 11 12 14 14 12 12 11 12 13 14 13 11 10 11 11 9 7 5 6 5 5
4 7 5 3 5 1 13 13 12 14 11 16 14 17 19 20 16 17 16 15 14 13 12 11 11 11 12 11 12 9 9 11 11 11 10 9 8 10 9 8 5 6 4 3
7 5 5 5 10 6 11 12 13 20 16 15 18 16 16 20 17 17 14 12 13 12 11 11 10 9 11 11 11 9 7 9 10 9 7 8 7 7 7 7 7 12 10 12
Wind_Direction
224 198 230 199 225 254 268 274 273 274 261 227 250 265 262 253 228 239 220 226 190 213 231 226 188 177 162 168 172 177 173 182 176 173 176 178 192 188 182 180 196 190 194 198
264 239 233 211 233 236 243 254 261 275 267 263 265 268 269 256 237 233 228 222 238 192 218 214 221 149 165 168 177 179 189 182 180 178 174 191 188 185 186 176 188 188 193 198
215 226 208 221 232 240 242 242 258 255 262 259 272 275 262 246 254 255 241 223 219 216 197 213 201 168 163 172 175 182 185 187 182 181 148 93 79 34 113 167 156 183 192 197
227 262 243 280 291 259 251 261 272 288 256 248 235 262 257 226 229 234 240 232 221 220 216 196 192 163 176 179 178 186 180 175 179 168 166 187 183 196 198 177 139 164 185 192
264 282 262 256 238 242 268 287 323 306 303 193 281 249 267 190 245 239 230 233 226 227 208 205 199 176 183 177 181 186 187 178 181 184 193 177 192 166 174 110 131 138 147 139
269 271 251 240 247 222 252 259 331 279 181 253 249 186 261 236 214 261 264 266 245 222 215 196 197 169 173 179 181 185 190 189 192 179 183 180 163 167 139 171 164 146 133 130
276 261 262 231 255 274 225 104 290 223 214 217 226 255 252 258 242 220 245 248 223 222 205 201 196 186 171 182 181 181 185 187 191 182 185 174 174 174 161 151 156 147 168 131
249 241 216 222 211 182 189 165 187 249 181 240 229 203 248 251 262 249 240 247 229 219 220 208 201 198 184 176 181 184 184 181 184 183 182 167 171 156 147 158 158 117 118 108
288 251 339 328 243 159 180 167 195 206 258 246 235 281 283 262 263 262 254 244 243 215 223 224 217 186 181 173 178 185 184 177 181 174 164 163 148 138 128 111 107 112 107 109
230 286 349 274 294 226 154 157 167 318 186 207 241 243 242 304 253 299 286 297 276 285 228 215 218 200 183 176 177 171 181 171 163 150 137 126 121 121 122 118 115 113 115 114
263 204 247 303 246 216 137 205 86 114 164 184 264 255 305 276 16 302 298 298 295 266 254 221 210 207 187 171 171 162 146 139 131 122 121 115 117 117 116 113 114 113 109 109
298 171 251 253 320 48 91 79 26 171 214 245 168 249 275 3 340 273 304 317 298 248 227 231 208 201 177 167 157 153 135 130 124 116 113 111 111 115 112 108 107 103 95 90
331 297 315 350 242 39 43 339 169 269 249 214 204 266 231 6 340 323 316 328 306 202 94 121 133 144 139 132 131 132 133 123 118 113 110 106 104 105 104 103 102 99 98 95
264 225 194 227 248 285 277 264 225 227 273 232 236 276 294 297 323 338 327 0 320 233 111 109 114 117 122 125 129 131 126 120 119 113 112 108 104 103 101 97 100 93 96 95
104 244 246 263 269 268 270 273 268 219 232 248 237 228 260 225 267 343 328 330 288 267 125 124 120 118 119 118 118 119 119 119 120 111 107 108 107 101 94 93 89 91 89 88
355 279 299 268 270 271 275 275 269 242 229 241 250 275 215 198 217 63 3 303 251 86 55 95 107 104 110 114 119 115 110 110 111 110 112 109 106 98 96 94 91 88 86 88
274 255 0 273 316 306 292 97 311 290 218 215 210 228 133 225 62 170 142 86 58 57 55 79 86 88 104 118 119 111 112 111 109 108 110 108 102 97 96 94 91 88 95 98
256 196 268 281 327 327 1 27 329 314 211 191 244 96 104 84 60 53 81 88 72 68 60 59 67 84 108 106 106 111 108 107 106 102 104 103 99 99 95 89 85 91 103 103
209 204 265 273 290 283 303 23 344 343 327 299 119 114 112 96 73 41 76 91 93 85 84 78 78 79 63 94 102 102 97 99 98 101 101 97 104 99 95 94 105 106 103 105
202 205 222 264 306 305 356 332 325 304 71 19 28 131 134 121 89 54 54 72 86 86 83 88 84 89 86 64 91 97 96 96 100 100 98 97 96 99 102 108 111 100 105 110
76 139 226 225 242 270 359 323 312 50 316 327 330 139 86 82 89 87 77 73 74 77 85 84 78 84 82 74 72 93 93 90 100 102 97 94 94 99 104 100 105 111 113 110
359 302 44 310 306 317 347 335 38 331 299 294 91 105 101 98 98 93 84 86 84 82 82 78 77 67 75 93 99 82 86 93 93 94 94 93 91 95 90 93 97 99 111 110
25 343 350 22 1 303 321 310 299 294 267 147 110 117 117 113 102 93 86 82 82 84 82 81 97 94 69 68 79 88 88 96 95 92 89 85 82 75 68 72 77 74 82 101
348 6 11 294 358 330 354 349 344 332 105 118 115 117 111 106 104 98 96 88 81 81 81 83 81 86 78 68 69 83 97 99 97 95 93 89 89 81 67 64 56 70 67 81
316 302 341 302 337 287 18 9 6 25 82 106 104 113 113 105 101 102 95 92 91 90 85 83 82 74 76 66 54 49 86 101 101 102 104 93 83 87 85 72 56 73 53 100
341 337 34 43 17 43 39 23 37 48 54 77 98 94 96 102 103 97 92 93 94 92 88 84 83 86 81 74 70 53 62 104 116 111 108 110 105 104 94 93 80 49 69 89